1487833200.59,47865,10.56,72256.3,-4.13,-4.73,-4.93,0,*50
1487833201.85,47866,10.5,72254.0,-4.13,-4.93,-5.07,0,*51
1487833203.1,47867,10.56,72252.3,-4.13,-4.93,-5.03,0,*54
1487833204.36,47868,10.56,72250.3,-4.13,-4.89,-5.03,0,*50
1487833205.63,47869,10.5,72246.3,-4.13,-5.15,-5.27,0,*53
1487833206.88,47870,10.56,72246.3,-4.13,-4.85,-4.93,0,*5D
1487833208.16,47871,10.5,72238.0,-4.11,-5.03,-5.15,0,*5E
1487833209.44,47872,10.56,72246.0,-4.11,-4.89,-5.03,0,*59
1487833210.69,47873,10.56,72244.5,-4.11,-4.61,-4.73,0,*58
1487833211.94,47874,10.56,72248.0,-4.11,-4.61,-4.85,0,*56
1487833213.21,47875,10.56,72248.3,-4.11,-4.85,-5.03,0,*52
1487833214.48,47876,10.56,72248.5,-4.11,-4.77,-4.93,0,*54
1487833215.76,47877,10.56,72244.5,-4.11,-5.03,-5.15,0,*58
1487833217.04,47878,10.56,72248.3,-4.11,-4.93,-5.03,0,*58
1487833218.31,47879,10.56,72248.3,-4.11,-4.73,-4.89,0,*54
1487833219.56,47880,10.56,72246.0,-4.09,-4.73,-4.89,0,*5B
1487833220.83,47881,10.56,72258.3,-4.11,-4.77,-4.89,0,*57
1487833222.08,47882,10.56,72252.3,-4.09,-4.89,-4.93,0,*57
1487833223.36,47883,10.56,72242.8,-4.11,-4.89,-5.07,0,*53
1487833224.61,47884,10.56,72260.3,-4.09,-4.89,-5.19,0,*52
1487833225.88,47885,10.5,72262.0,-4.11,-4.93,-5.07,0,*5E
1487833227.14,47886,10.56,72260.5,-4.09,-5.03,-5.15,0,*5F
1487833228.42,47887,10.56,72256.0,-4.11,-5.03,-5.19,0,*5B
1487833229.69,47888,10.56,72266.3,-4.11,-4.93,-5.07,0,*53
1487833230.98,47889,10.56,72270.0,-4.11,-4.89,-5.07,0,*59
1487833232.22,47890,10.56,72264.5,-4.09,-4.85,-4.93,0,*58
1487833233.47,47891,10.5,72262.0,-4.09,-5.15,-5.31,0,*58
1487833234.75,47892,10.56,72264.0,-4.11,-5.19,-5.31,0,*5E
1487833236.01,47893,10.56,72270.5,-4.09,-5.03,-5.19,0,*57
1487833237.27,47894,10.56,72268.8,-4.09,-5.03,-5.07,0,*5F
1487833238.53,47895,10.56,72272.3,-4.09,-5.03,-5.27,0,*5C
1487833239.8,47896,10.56,72268.3,-4.11,-4.93,-5.15,0,*5F
1487833241.08,47897,10.56,72278.5,-4.11,-5.15,-5.31,0,*57
1487833242.28,47898,10.56,72282.8,-4.09,-5.39,-5.43,0,*5A
1487833243.56,47899,10.56,72280.3,-4.11,-5.19,-5.31,0,*55
1487833244.82,47900,10.5,72282.5,-4.09,-5.07,-5.27,0,*55
1487833246.07,47901,10.56,72288.8,-4.11,-5.27,-5.51,0,*5E
1487833247.3,47902,10.56,72276.3,-4.09,-5.19,-5.43,0,*5A
1487833248.56,47903,10.56,72284.5,-4.11,-5.31,-5.55,0,*5F
1487833249.81,47904,10.56,72282.3,-4.11,-5.19,-5.39,0,*58
1487833251.06,47905,10.56,72288.0,-4.15,-5.19,-5.43,0,*50
1487833252.31,47906,10.56,72288.8,-4.11,-5.27,-5.51,0,*59
1487833253.55,47907,10.56,72290.5,-4.13,-5.15,-5.39,0,*55
1487833254.79,47908,10.56,72290.8,-4.13,-5.31,-5.51,0,*52
1487833256.02,47909,10.56,72286.3,-4.13,-5.19,-5.43,0,*5A
1487833257.25,47910,10.56,72280.3,-4.13,-5.27,-5.39,0,*52
1487833258.5,47911,10.56,72272.8,-4.15,-5.47,-5.69,0,*56
1487833259.77,47912,10.56,72268.8,-4.15,-5.55,-5.69,0,*56
1487833261.0,47913,10.56,72270.8,-4.13,-5.51,-5.65,0,*59
1487833262.24,47914,10.56,72260.5,-4.13,-5.55,-5.69,0,*56
1487833263.51,47915,10.56,72252.5,-4.15,-5.61,-5.73,0,*5D
1487833264.77,47916,10.56,72246.0,-4.15,-5.55,-5.69,0,*52
1487833266.05,47917,10.56,72254.3,-4.15,-5.69,-5.73,0,*57
1487833267.31,47918,10.56,72254.0,-4.15,-5.89,-6.09,0,*58
1487833268.54,47919,10.56,72256.8,-4.17,-6.09,-6.27,0,*5C
1487833269.77,47920,10.56,72256.8,-4.17,-6.01,-6.23,0,*5A
1487833271.02,47921,10.56,72236.8,-4.19,-5.93,-6.05,0,*59
1487833272.28,47922,10.56,72224.3,-4.19,-5.85,-6.01,0,*59
1487833273.51,47923,10.56,72218.8,-4.19,-6.05,-6.31,0,*50
1487833274.74,47924,10.56,72200.8,-4.19,-6.05,-6.31,0,*57
1487833275.98,47925,10.56,72212.0,-4.21,-6.19,-6.35,0,*54
1487833277.21,47926,10.56,72230.8,-4.21,-6.09,-6.23,0,*51
1487833278.46,47927,10.56,72224.3,-4.23,-5.55,-5.77,0,*5A
1487833279.74,47928,10.56,72224.0,-4.23,-5.77,-5.89,0,*54
1487833281.0,47929,10.56,72212.8,-4.21,-5.81,-5.89,0,*5E
1487833282.28,47930,10.56,72210.5,-4.23,-5.77,-5.89,0,*5D
1487833283.54,47931,10.56,72216.3,-4.23,-5.55,-5.69,0,*52
1487833284.8,47932,10.5,72216.5,-4.23,-5.31,-5.39,0,*56
1487833286.08,47933,10.56,72220.5,-4.23,-5.15,-5.31,0,*59
1487833287.29,47934,10.56,72220.0,-4.21,-5.39,-5.55,0,*50
1487833288.52,47935,10.56,72234.8,-4.23,-5.43,-5.55,0,*5E
1487833289.75,47936,10.56,72236.8,-4.23,-5.43,-5.51,0,*59
1487833290.98,47937,10.56,72232.5,-4.21,-5.27,-5.39,0,*56
1487833292.25,47938,10.56,72230.3,-4.23,-5.65,-5.77,0,*57
1487833293.5,47939,10.56,72222.0,-4.23,-5.43,-5.65,0,*51
1487833294.79,47940,10.56,72222.5,-4.23,-5.07,-5.27,0,*59
1487833296.04,47941,10.56,72234.8,-4.23,-5.07,-5.39,0,*57
1487833297.29,47942,10.56,72234.3,-4.23,-5.19,-5.43,0,*56
1487833298.53,47943,10.56,72228.8,-4.21,-5.27,-5.39,0,*55
1487833299.73,47944,10.56,72226.8,-4.21,-5.39,-5.43,0,*50
1487833300.99,47945,10.56,72224.5,-4.23,-5.31,-5.51,0,*58
1487833302.24,47946,10.56,72216.5,-4.23,-5.43,-5.65,0,*59
1487833303.47,47947,10.56,72220.0,-4.23,-5.39,-5.55,0,*56
1487833304.72,47948,10.56,72238.3,-4.23,-5.43,-5.65,0,*57
1487833306.0,47949,10.56,72228.3,-4.23,-5.77,-5.81,0,*5B
1487833307.25,47950,10.56,72228.5,-4.21,-5.65,-5.81,0,*52
1487833308.51,47951,10.56,72236.0,-4.23,-5.31,-5.51,0,*5D
1487833309.74,47952,10.56,72240.5,-4.23,-5.39,-5.55,0,*52
1487833311.02,47953,10.56,72224.8,-4.23,-5.69,-5.77,0,*56
1487833312.3,47954,10.56,72206.0,-4.23,-5.77,-5.89,0,*5F
1487833313.55,47955,10.56,72204.5,-4.23,-6.23,-6.35,0,*58
1487833314.78,47956,10.56,72222.8,-4.25,-6.09,-6.23,0,*52
1487833316.06,47957,10.56,72218.8,-4.27,-5.61,-5.81,0,*57
1487833317.29,47958,10.56,72216.0,-4.25,-5.43,-5.61,0,*54
1487833318.52,47959,10.56,72224.5,-4.25,-5.43,-5.61,0,*55
1487833319.77,47960,10.56,72220.0,-4.25,-5.61,-5.81,0,*51
1487833321.0,47961,10.56,72210.3,-4.25,-5.47,-5.73,0,*59
1487833322.23,47962,10.56,72216.5,-4.25,-5.47,-5.61,0,*59
1487833323.48,47963,10.56,72224.8,-4.25,-5.61,-5.73,0,*5F
1487833324.71,47964,10.56,72222.5,-4.25,-5.35,-5.61,0,*5A
1487833325.94,47965,10.56,72210.3,-4.25,-5.23,-5.43,0,*5C
1487833327.17,47966,10.56,72220.0,-4.25,-5.43,-5.61,0,*59
1487833328.38,47967,10.56,72222.0,-4.25,-5.35,-5.55,0,*5E
1487833329.61,47968,10.56,72220.3,-4.25,-5.23,-5.35,0,*50
1487833330.87,47969,10.56,72224.8,-4.25,-5.11,-5.23,0,*57
1487833332.12,47970,10.56,72222.8,-4.25,-5.11,-5.11,0,*5E
1487833333.38,47971,10.56,72234.3,-4.25,-5.07,-5.23,0,*59
1487833334.64,47972,10.56,72232.3,-4.25,-5.03,-5.11,0,*5F
1487833335.92,47973,10.56,72244.3,-4.23,-5.03,-5.15,0,*5C
1487833337.18,47974,10.56,72252.3,-4.23,-5.31,-5.51,0,*5A
1487833338.43,47975,10.56,72244.0,-4.23,-5.43,-5.65,0,*59
1487833339.7,47976,10.56,72244.5,-4.23,-5.65,-5.77,0,*5D
1487833340.95,47977,10.56,72252.8,-4.23,-5.43,-5.65,0,*5B
1487833342.21,47978,10.56,72246.5,-4.23,-5.31,-5.51,0,*56
1487833343.49,47979,10.56,72240.3,-4.23,-5.77,-5.81,0,*58
1487833344.69,47980,10.56,72230.3,-4.25,-6.01,-6.09,0,*59
1487833345.92,47981,10.56,72220.8,-4.25,-5.93,-6.09,0,*50
1487833347.15,47982,10.56,72212.0,-4.25,-5.93,-6.01,0,*5B
1487833348.35,47983,10.56,72210.5,-4.25,-5.97,-6.09,0,*56
1487833349.58,47984,10.56,72218.0,-4.25,-5.85,-6.09,0,*52
1487833350.81,47985,10.56,72224.8,-4.27,-6.01,-6.09,0,*5E
1487833352.04,47986,10.56,72212.8,-4.25,-5.85,-5.97,0,*54
1487833353.24,47987,10.56,72212.0,-4.29,-6.01,-6.13,0,*59
1487833354.47,47988,10.56,72218.0,-4.29,-6.05,-6.19,0,*58
1487833355.71,47989,10.56,72218.3,-4.29,-6.05,-6.19,0,*59
1487833356.94,47990,10.56,72232.3,-4.29,-6.01,-6.27,0,*58
1487833358.14,47991,10.56,72238.5,-4.29,-5.97,-6.01,0,*51
1487833359.41,47992,10.56,72236.3,-4.29,-5.85,-5.89,0,*52
1487833360.67,47993,10.56,72252.0,-4.33,-5.77,-5.85,0,*59
1487833361.92,47994,10.56,72234.5,-4.29,-5.73,-5.89,0,*5D
1487833363.18,47995,10.56,72204.8,-4.29,-5.77,-5.89,0,*58
1487833364.39,47996,10.56,72194.3,-4.29,-6.01,-6.13,0,*59
1487833365.59,47997,10.56,72218.3,-4.33,-5.97,-6.05,0,*58
1487833366.84,47998,10.56,72212.8,-4.33,-5.61,-5.77,0,*58
1487833368.1,47999,10.56,72196.0,-4.33,-5.77,-5.89,0,*5F
1487833369.35,48000,10.56,72188.3,-4.33,-5.65,-5.77,0,*5B
1487833370.61,48001,10.56,72198.5,-4.29,-5.65,-5.85,0,*5C
1487833371.87,48002,10.56,72198.0,-4.29,-5.65,-5.85,0,*5F
1487833373.13,48003,10.56,72200.5,-4.29,-5.73,-5.85,0,*59
1487833374.38,48004,10.56,72200.5,-4.29,-5.73,-5.85,0,*5E
1487833375.64,48005,10.56,72196.8,-4.33,-5.65,-5.77,0,*5E
1487833376.9,48006,10.56,72210.0,-4.29,-5.65,-5.85,0,*5B
1487833378.15,48007,10.56,72212.5,-4.33,-5.61,-5.73,0,*5C
1487833379.41,48008,10.56,72230.0,-4.29,-5.77,-5.85,0,*56
1487833380.67,48009,10.56,72234.3,-4.29,-5.73,-5.85,0,*53
1487833381.9,48010,10.56,72234.0,-4.29,-5.35,-5.61,0,*53
1487833383.13,48011,10.56,72242.3,-4.29,-5.27,-5.47,0,*55
1487833384.37,48012,10.56,72236.0,-4.29,-5.23,-5.39,0,*5B
1487833385.6,48013,10.56,72232.0,-4.29,-5.47,-5.65,0,*51
1487833386.83,48014,10.56,72234.5,-4.29,-5.27,-5.39,0,*59
1487833388.06,48015,10.56,72230.5,-4.33,-5.15,-5.39,0,*52
1487833389.3,48016,10.56,72232.0,-4.29,-5.23,-5.39,0,*5F
1487833390.56,48017,10.56,72234.5,-4.29,-5.15,-5.27,0,*54
1487833391.82,48018,10.56,72228.8,-4.27,-5.19,-5.43,0,*5B
1487833393.07,48019,10.56,72228.5,-4.27,-5.23,-5.35,0,*52
1487833394.33,48020,10.56,72228.0,-4.27,-5.23,-5.35,0,*58
1487833395.56,48021,10.56,72226.3,-4.25,-5.23,-5.35,0,*5B
1487833396.84,48022,10.56,72234.3,-4.27,-5.11,-5.31,0,*5F
1487833398.11,48023,10.56,72236.8,-4.27,-5.55,-5.61,0,*5B
1487833399.34,48024,10.56,72240.5,-4.25,-5.23,-5.35,0,*5E
1487833400.59,48025,10.56,72244.3,-4.27,-5.19,-5.35,0,*54
1487833401.87,48026,10.56,72244.3,-4.27,-5.11,-5.23,0,*58
1487833403.13,48027,10.56,72266.0,-4.25,-5.11,-5.19,0,*52
1487833404.41,48028,10.56,72268.8,-4.27,-5.07,-5.31,0,*52
1487833405.66,48029,10.56,72266.5,-4.23,-5.27,-5.43,0,*50
1487833406.92,48030,10.56,72266.5,-4.25,-5.11,-5.31,0,*5E
1487833408.2,48031,10.56,72256.5,-4.27,-5.11,-5.31,0,*5D
1487833409.45,48032,10.56,72260.0,-4.27,-5.43,-5.69,0,*54
1487833410.71,48033,10.56,72260.0,-4.25,-5.81,-5.85,0,*5B
1487833411.94,48034,10.56,72286.0,-4.23,-5.51,-5.55,0,*5A
1487833413.18,48035,10.56,72258.8,-4.23,-5.39,-5.55,0,*55
1487833414.41,48036,10.56,72232.0,-4.25,-5.85,-5.97,0,*59
1487833415.63,48037,10.56,72190.3,-4.25,-5.85,-6.01,0,*54
1487833416.89,48038,10.56,72152.8,-4.27,-5.85,-5.97,0,*55
1487833418.18,48039,10.56,72158.8,-4.27,-5.85,-5.93,0,*50
1487833419.38,48040,10.56,72184.3,-4.29,-5.97,-6.01,0,*5B
1487833420.61,48041,10.56,72200.5,-4.29,-5.89,-5.97,0,*59
1487833421.88,48042,10.56,72210.0,-4.29,-5.85,-5.89,0,*59
1487833423.11,48043,10.56,72224.3,-4.29,-5.47,-5.65,0,*54
1487833424.37,48044,10.56,72226.0,-4.29,-5.65,-5.85,0,*5D
1487833425.61,48045,10.56,72250.8,-4.29,-5.47,-5.65,0,*52
1487833426.86,48046,10.56,72256.5,-4.27,-5.11,-5.35,0,*59
1487833428.14,48047,10.56,72258.5,-4.27,-5.11,-5.23,0,*5F
1487833429.42,48048,10.56,72254.5,-4.27,-5.11,-5.19,0,*59
1487833430.71,48049,10.56,72252.0,-4.27,-5.19,-5.23,0,*59
1487833431.99,48050,10.56,72258.3,-4.27,-5.19,-5.31,0,*52
1487833433.27,48051,10.56,72262.3,-4.27,-5.19,-5.31,0,*53
1487833434.55,48052,10.56,72264.5,-4.27,-5.11,-5.23,0,*5B
1487833435.84,48053,10.56,72262.0,-4.27,-5.03,-5.19,0,*50
1487833437.07,48054,10.56,72254.5,-4.25,-5.19,-5.43,0,*51
1487833438.32,48055,10.56,72268.3,-4.27,-5.31,-5.47,0,*5C
1487833439.56,48056,10.56,72278.5,-4.25,-5.55,-5.81,0,*55
1487833440.81,48057,10.56,72264.5,-4.27,-5.43,-5.61,0,*5F
1487833442.04,48058,10.56,72250.5,-4.25,-5.55,-5.73,0,*56
1487833443.3,48059,10.56,72248.5,-4.25,-5.69,-5.81,0,*55
1487833444.58,48060,10.56,72224.0,-4.27,-5.81,-5.93,0,*58
1487833445.83,48061,10.56,72226.0,-4.25,-5.73,-5.93,0,*56
1487833447.11,48062,10.56,72230.5,-4.27,-5.69,-5.81,0,*5F
1487833448.39,48063,10.56,72262.8,-4.27,-5.61,-5.85,0,*52
1487833449.68,48064,10.56,72270.3,-4.27,-5.69,-5.85,0,*5D
1487833450.9,48065,10.56,72254.5,-4.25,-5.73,-6.01,0,*5A
1487833452.18,48066,10.56,72222.0,-4.27,-5.93,-6.23,0,*55
1487833453.44,48067,10.56,72216.3,-4.27,-5.93,-6.35,0,*53
1487833454.64,48068,10.56,72216.0,-4.29,-5.97,-6.39,0,*5A
1487833455.85,48069,10.56,72208.0,-4.29,-6.05,-6.31,0,*5B
1487833457.06,48070,10.56,72232.3,-4.29,-6.01,-6.31,0,*57
1487833458.31,48071,10.56,72220.5,-4.27,-5.97,-6.23,0,*57
1487833459.57,48072,10.56,72232.5,-4.27,-5.97,-6.23,0,*54
1487833460.79,48073,10.56,72218.8,-4.27,-5.97,-6.09,0,*5D
1487833462.02,48074,10.56,72218.3,-4.33,-6.01,-6.19,0,*52
1487833463.22,48075,10.56,72218.8,-4.33,-5.97,-6.05,0,*52
1487833464.43,48076,10.56,72250.8,-4.29,-6.01,-6.13,0,*51
1487833465.68,48077,10.56,72226.3,-4.33,-5.65,-5.77,0,*5B
1487833466.95,48078,10.56,72232.0,-4.29,-5.85,-5.89,0,*50
1487833468.2,48079,10.56,72218.3,-4.33,-5.77,-5.89,0,*57
1487833469.47,48080,10.56,72230.0,-4.29,-5.77,-5.89,0,*5A
1487833470.67,48081,10.56,72228.0,-4.33,-5.97,-6.05,0,*59
1487833471.92,48082,10.56,72232.5,-4.33,-6.19,-6.27,0,*5F
1487833473.12,48083,10.56,72232.8,-4.33,-6.05,-6.13,0,*54
1487833474.38,48084,10.56,72224.5,-4.33,-5.85,-5.89,0,*58
1487833475.61,48085,10.56,72248.3,-4.33,-5.85,-6.01,0,*5A
1487833476.84,48086,10.56,72244.3,-4.33,-5.89,-5.97,0,*59
1487833478.08,48087,10.56,72260.8,-4.33,-5.73,-5.77,0,*53
1487833479.31,48088,10.56,72262.5,-4.33,-5.39,-5.65,0,*51
1487833480.54,48089,10.56,72282.3,-4.33,-5.51,-5.73,0,*59
1487833481.78,48090,10.56,72270.0,-4.29,-5.47,-5.65,0,*5A
1487833483.03,48091,10.56,72246.5,-4.33,-5.65,-5.85,0,*5E
1487833484.3,48092,10.56,72228.3,-4.29,-5.65,-5.85,0,*56
1487833485.53,48093,10.56,72224.8,-4.29,-5.77,-6.01,0,*5B
1487833486.75,48094,10.56,72214.5,-4.33,-5.89,-6.05,0,*52
1487833487.98,48095,10.56,72188.5,-4.33,-5.89,-5.97,0,*5B
1487833489.23,48096,10.56,72156.5,-4.33,-5.65,-5.77,0,*54
1487833490.49,48097,10.56,72180.3,-4.33,-5.89,-5.89,0,*56
1487833491.69,48098,10.56,72182.0,-4.33,-5.97,-5.97,0,*59
1487833492.92,48099,10.56,72194.3,-4.33,-5.89,-5.97,0,*57
1487833494.17,48100,10.56,72174.0,-4.29,-5.65,-5.77,0,*51
1487833495.43,48101,10.56,72202.0,-4.33,-5.65,-5.85,0,*56
1487833496.66,48102,10.56,72212.3,-4.33,-5.89,-6.01,0,*58
1487833497.91,48103,10.56,72218.8,-4.33,-5.73,-5.85,0,*53
1487833499.17,48104,10.56,72240.3,-4.33,-5.77,-5.89,0,*5C
1487833500.4,48105,10.56,72156.5,-4.33,-5.89,-6.05,0,*5B
1487833501.65,48106,10.56,72142.8,-4.33,-5.65,-5.85,0,*51
1487833502.89,48107,10.56,72174.8,-4.33,-5.39,-5.61,0,*53
1487833504.12,48108,10.56,72210.0,-4.33,-5.39,-5.65,0,*58
1487833505.35,48109,10.56,72234.0,-4.33,-5.39,-5.61,0,*5D
1487833506.55,48110,10.56,72234.5,-4.33,-5.35,-5.51,0,*5A
1487833507.79,48111,10.56,72232.0,-4.29,-5.27,-5.51,0,*53
1487833509.02,48112,10.56,72226.5,-4.33,-5.51,-5.65,0,*5D
1487833510.27,48113,10.56,72220.8,-4.29,-5.61,-5.73,0,*53
1487833511.5,48114,10.56,72228.8,-4.29,-5.27,-5.47,0,*51
1487833512.73,48115,10.56,72236.5,-4.33,-5.39,-5.65,0,*54
1487833513.99,48116,10.56,72242.0,-4.29,-5.61,-5.89,0,*53
1487833515.25,48117,10.56,72240.8,-4.27,-5.55,-5.81,0,*53
1487833516.51,48118,10.56,72234.3,-4.27,-5.47,-5.81,0,*5F
1487833517.77,48119,10.56,72228.3,-4.27,-5.55,-5.73,0,*50
1487833519.0,48120,10.63,72232.0,-4.29,-5.15,-5.51,0,*50
1487833520.27,48121,10.56,72230.0,-4.29,-5.23,-5.61,0,*57
1487833521.52,48122,10.56,72234.5,-4.27,-5.31,-5.47,0,*5D
1487833522.78,48123,10.56,72232.0,-4.27,-5.07,-5.35,0,*5C
1487833524.06,48124,10.56,72234.5,-4.27,-4.69,-5.03,0,*57
1487833525.31,48125,10.56,72236.0,-4.25,-4.77,-5.03,0,*5B
1487833526.54,48126,10.56,72228.8,-4.25,-5.19,-5.47,0,*51
1487833527.82,48127,10.56,72234.3,-4.23,-5.07,-5.15,0,*5E
1487833529.1,48128,10.56,72246.5,-4.23,-5.07,-5.19,0,*5D
1487833530.39,48129,10.56,72248.0,-4.23,-5.03,-5.07,0,*57
1487833531.62,48130,10.56,72238.8,-4.21,-4.99,-5.07,0,*5F
1487833532.88,48131,10.56,72224.8,-4.21,-5.03,-5.15,0,*5F
1487833534.11,48132,10.56,72214.3,-4.21,-4.89,-4.99,0,*5A
1487833535.37,48133,10.56,72212.3,-4.17,-4.73,-4.89,0,*5A
1487833536.62,48134,10.56,72230.8,-4.19,-4.99,-5.11,0,*57
1487833537.87,48135,10.56,72206.0,-4.17,-4.93,-5.07,0,*55
1487833539.12,48136,10.56,72198.5,-4.15,-4.93,-4.99,0,*52
1487833540.38,48137,10.56,72214.8,-4.17,-5.07,-5.19,0,*54
1487833541.63,48138,10.56,72230.0,-4.15,-5.19,-5.35,0,*58
1487833542.89,48139,10.56,72216.3,-4.15,-5.23,-5.43,0,*51
1487833544.14,48140,10.56,72188.3,-4.15,-5.19,-5.35,0,*57
1487833545.4,48141,10.56,72194.5,-4.15,-5.19,-5.43,0,*57
1487833546.63,48142,10.56,72252.5,-4.15,-5.35,-5.47,0,*5E
1487833547.86,48143,10.56,72234.8,-4.15,-5.43,-5.55,0,*5D
1487833549.09,48144,10.56,72242.5,-4.15,-5.43,-5.55,0,*5A
1487833550.32,48145,10.56,72240.3,-4.17,-5.43,-5.61,0,*5E
1487833551.6,48146,10.56,72228.3,-4.19,-5.11,-5.27,0,*56
1487833552.83,48147,10.56,72230.0,-4.17,-4.99,-5.19,0,*55
1487833554.11,48148,10.56,72248.3,-4.15,-4.93,-5.11,0,*5A
1487833555.37,48149,10.56,72240.5,-4.13,-5.15,-5.27,0,*57
1487833556.65,48150,10.56,72250.5,-4.15,-5.11,-5.19,0,*50
1487833557.9,48151,10.56,72246.0,-4.13,-4.93,-5.15,0,*50
1487833559.19,48152,10.56,72230.3,-4.15,-5.19,-5.31,0,*50
1487833560.42,48153,10.56,72212.3,-4.13,-5.19,-5.39,0,*5F
1487833561.65,48154,10.56,72210.8,-4.15,-5.35,-5.47,0,*59
1487833562.88,48155,10.56,72198.8,-4.13,-5.31,-5.51,0,*5D
1487833564.11,48156,10.56,72218.5,-4.15,-5.35,-5.47,0,*5B
1487833565.37,48157,10.56,72234.5,-4.15,-5.31,-5.47,0,*5E
1487833566.6,48158,10.56,72232.8,-4.15,-5.35,-5.55,0,*56
1487833567.86,48159,10.56,72238.3,-4.15,-5.19,-5.35,0,*5F
1487833569.14,48160,10.56,72242.5,-4.15,-5.19,-5.31,0,*51
1487833570.38,48161,10.63,72232.3,-4.13,-5.15,-5.39,0,*52
1487833571.64,48162,10.56,72226.3,-4.13,-5.03,-5.27,0,*59
1487833572.87,48163,10.56,72234.8,-4.13,-5.27,-5.39,0,*51
1487833574.13,48164,10.56,72242.5,-4.15,-5.19,-5.35,0,*51
1487833575.39,48165,10.56,72242.8,-4.13,-5.03,-5.19,0,*53
1487833576.64,48166,10.56,72238.5,-4.13,-4.93,-5.07,0,*57
1487833577.9,48167,10.56,72232.8,-4.13,-4.93,-5.07,0,*56
1487833579.16,48168,10.56,72242.0,-4.13,-4.89,-5.03,0,*56
1487833580.41,48169,10.56,72244.3,-4.13,-4.85,-4.93,0,*53
1487833581.69,48170,10.56,72240.5,-4.11,-4.89,-5.03,0,*5D
1487833582.94,48171,10.56,72246.5,-4.11,-4.65,-4.77,0,*5C
1487833584.18,48172,10.56,72232.8,-4.09,-4.89,-4.93,0,*5E
1487833585.43,48173,10.56,72230.8,-4.09,-4.77,-4.93,0,*5E
1487833586.69,48174,10.56,72224.3,-4.11,-4.77,-4.85,0,*57
1487833587.94,48175,10.56,72222.8,-4.09,-4.85,-4.93,0,*55
1487833589.18,48176,10.56,72198.5,-4.09,-4.73,-4.89,0,*54
1487833590.43,48177,10.56,72176.3,-4.09,-4.93,-5.07,0,*5C
1487833591.69,48178,10.56,72188.8,-4.05,-4.89,-5.15,0,*57
1487833592.93,48179,10.56,72210.3,-4.03,-4.85,-4.93,0,*53
1487833594.17,48180,10.56,72214.8,-4.03,-4.85,-4.93,0,*55
1487833595.42,48181,10.63,72218.3,-4.03,-4.69,-4.81,0,*55
1487833596.67,48182,10.56,72226.3,-4.03,-4.81,-4.85,0,*54
1487833597.91,48183,10.56,72234.8,-4.03,-4.77,-4.81,0,*58
1487833599.19,48184,10.56,72230.0,-4.01,-4.69,-4.81,0,*52
1487833600.46,48185,10.56,72240.3,-4.01,-4.69,-4.81,0,*53
1487833601.71,48186,10.56,72242.8,-4.01,-4.65,-4.77,0,*55
1487833602.96,48187,10.56,72246.5,-3.99,-4.77,-4.89,0,*50
1487833604.24,48188,10.56,72240.3,-4.01,-5.11,-5.23,0,*59
1487833605.47,48189,10.56,72238.3,-3.99,-5.15,-5.39,0,*51
1487833606.7,48190,10.56,72246.5,-3.99,-4.99,-5.11,0,*56
1487833607.94,48191,10.56,72242.5,-3.99,-4.81,-4.93,0,*55
1487833609.21,48192,10.56,72244.0,-3.99,-5.03,-5.19,0,*5E
1487833610.44,48193,10.63,72236.5,-3.99,-5.31,-5.43,0,*51
1487833611.7,48194,10.56,72232.5,-3.99,-5.03,-5.19,0,*58
1487833612.92,48195,10.56,72226.0,-3.95,-4.99,-5.11,0,*5F
1487833614.19,48196,10.56,72192.8,-3.97,-4.81,-4.93,0,*5C
1487833615.45,48197,10.56,72198.5,-3.99,-4.81,-5.03,0,*5B
1487833616.73,48198,10.56,72184.0,-3.97,-4.77,-4.89,0,*50
1487833618.01,48199,10.56,72192.3,-3.97,-4.81,-5.07,0,*5F
1487833619.3,48200,10.56,72206.5,-3.97,-5.07,-5.27,0,*51
1487833620.59,48201,10.56,72208.5,-3.97,-5.07,-5.31,0,*57
1487833621.87,48202,10.56,72216.3,-3.97,-4.89,-5.03,0,*52
1487833623.16,48203,10.56,72248.5,-3.97,-4.81,-5.03,0,*5B
1487833624.44,48204,10.56,72238.3,-3.97,-5.15,-5.31,0,*51
1487833625.73,48205,10.56,72232.8,-3.97,-5.03,-5.19,0,*5D
1487833627.02,48206,10.56,72230.8,-3.97,-5.03,-5.19,0,*5E
1487833628.28,48207,10.56,72222.0,-3.97,-5.31,-5.43,0,*51
1487833629.53,48208,10.56,72238.5,-3.97,-5.19,-5.39,0,*59
1487833630.81,48209,10.56,72238.8,-3.97,-4.81,-5.15,0,*56
1487833632.09,48210,10.56,72248.5,-3.97,-4.81,-5.03,0,*59
1487833633.38,48211,10.56,72256.5,-3.97,-4.89,-5.07,0,*54
1487833634.67,48212,10.56,72252.3,-3.97,-5.07,-5.27,0,*52
1487833635.9,48213,10.56,72256.3,-3.99,-5.27,-5.39,0,*50
1487833637.13,48214,10.56,72246.8,-3.99,-5.55,-5.73,0,*5C
1487833638.38,48215,10.56,72240.3,-3.99,-5.73,-5.85,0,*50
1487833639.66,48216,10.56,72242.3,-4.01,-5.61,-5.73,0,*5F
1487833640.93,48217,10.56,72242.0,-4.01,-5.61,-5.73,0,*5E
1487833642.16,48218,10.56,72238.8,-3.99,-5.51,-5.65,0,*53
1487833643.41,48219,10.63,72248.8,-4.01,-5.89,-6.01,0,*50
1487833644.67,48220,10.56,72236.5,-4.01,-5.85,-5.97,0,*5A
1487833645.91,48221,10.56,72230.0,-4.03,-5.73,-5.77,0,*5E
1487833647.12,48222,10.56,72220.0,-4.03,-5.35,-5.55,0,*5F
1487833648.35,48223,10.56,72218.0,-4.05,-5.15,-5.35,0,*5C
1487833649.58,48224,10.56,72222.0,-4.03,-5.23,-5.43,0,*59
1487833650.8,48225,10.56,72214.3,-4.03,-5.19,-5.35,0,*50
1487833652.06,48226,10.56,72246.8,-4.03,-4.89,-5.07,0,*5A
1487833653.29,48227,10.56,72260.5,-4.05,-4.99,-5.11,0,*5B
1487833654.54,48228,10.56,72246.3,-4.03,-5.11,-5.31,0,*51
1487833655.76,48229,10.56,72240.3,-4.03,-5.19,-5.43,0,*5D
1487833656.99,48230,10.56,72246.0,-4.03,-5.11,-5.35,0,*5C
1487833658.2,48231,10.56,72224.3,-4.03,-5.73,-5.97,0,*51
1487833659.45,48232,10.56,72216.3,-4.05,-5.61,-5.73,0,*5D
1487833660.69,48233,10.56,72220.8,-4.05,-5.23,-5.35,0,*58
1487833661.92,48234,10.56,72202.0,-4.05,-5.27,-5.39,0,*57
1487833663.12,48235,10.56,72204.8,-4.03,-5.43,-5.55,0,*58
1487833664.35,48236,10.56,72230.5,-4.05,-5.27,-5.39,0,*55
1487833665.61,48237,10.56,72226.8,-4.05,-5.03,-5.15,0,*5C
1487833666.87,48238,10.56,72226.3,-4.05,-4.89,-5.03,0,*57
1487833668.11,48239,10.56,72226.5,-4.05,-4.99,-5.27,0,*51
1487833669.33,48240,10.56,72216.3,-4.03,-5.43,-5.61,0,*5D
1487833670.57,48241,10.56,72212.5,-4.05,-5.51,-5.61,0,*59
1487833671.83,48242,10.56,72212.8,-4.05,-5.11,-5.27,0,*5C
1487833673.09,48243,10.63,72212.5,-4.05,-4.89,-5.03,0,*5B
1487833674.35,48244,10.56,72202.8,-4.03,-4.89,-5.03,0,*5A
1487833675.59,48245,10.56,72202.8,-4.03,-4.85,-5.11,0,*54
1487833676.81,48246,10.56,72210.3,-4.03,-5.11,-5.43,0,*5C
1487833678.02,48247,10.56,72216.8,-4.03,-5.39,-5.51,0,*54
1487833679.25,48248,10.56,72220.5,-4.03,-5.31,-5.55,0,*57
1487833680.49,48249,10.56,72220.5,-4.05,-5.35,-5.61,0,*53
1487833681.69,48250,10.56,72228.0,-4.05,-5.39,-5.51,0,*54
1487833682.9,48251,10.56,72244.5,-4.05,-5.39,-5.51,0,*55
1487833684.13,48252,10.56,72244.0,-4.03,-5.23,-5.43,0,*58
1487833685.36,48253,10.56,72244.8,-4.03,-5.19,-5.43,0,*50
1487833686.59,48254,10.56,72242.5,-4.05,-5.23,-5.39,0,*55
1487833687.85,48255,10.56,72242.0,-4.03,-5.07,-5.19,0,*56
1487833689.08,48256,10.56,72250.0,-4.05,-5.15,-5.35,0,*5E
1487833690.31,48257,10.56,72250.0,-4.03,-5.31,-5.47,0,*5A
1487833691.54,48258,10.56,72252.8,-4.05,-5.15,-5.39,0,*5C
1487833692.75,48259,10.63,72254.5,-4.05,-5.35,-5.47,0,*56
1487833693.98,48260,10.63,72256.5,-4.05,-5.27,-5.47,0,*5F
1487833695.18,48261,10.56,72256.5,-4.05,-5.35,-5.51,0,*5A
1487833696.42,48262,10.56,72256.5,-4.05,-5.15,-5.39,0,*55
1487833697.68,48263,10.56,72258.3,-4.05,-5.03,-5.15,0,*5D
1487833698.91,48264,10.63,72254.3,-4.05,-5.39,-5.61,0,*50
1487833700.14,48265,10.56,72252.3,-4.05,-5.27,-5.39,0,*53
1487833701.38,48266,10.56,72248.5,-4.05,-5.23,-5.39,0,*54
1487833702.58,48267,10.56,72248.8,-4.09,-5.39,-5.55,0,*58
1487833703.84,48268,10.56,72244.5,-4.09,-5.65,-5.81,0,*57
1487833705.06,48269,10.56,72242.5,-4.09,-5.19,-5.43,0,*53
1487833706.29,48270,10.56,72244.0,-4.09,-5.07,-5.39,0,*59
1487833707.55,48271,10.56,72258.5,-4.09,-5.07,-5.27,0,*57
1487833708.8,48272,10.63,72264.5,-4.09,-5.03,-5.15,0,*51
1487833710.03,48273,10.56,72262.3,-4.09,-5.27,-5.39,0,*58
1487833711.28,48274,10.56,72262.5,-4.09,-5.19,-5.31,0,*5A
1487833712.54,48275,10.56,72262.0,-4.09,-5.15,-5.31,0,*57
1487833713.79,48276,10.56,72260.0,-4.09,-5.19,-5.31,0,*58
1487833715.04,48277,10.56,72262.0,-4.09,-4.93,-5.19,0,*50
1487833716.31,48278,10.56,72266.8,-4.11,-4.93,-5.15,0,*5A